Weather in Koptevo

Russia / Oryol Oblast     53°22′04″N   35°39′37″E
temp.,
°C
wind,
m/s
gust,
m/s
humid.,
%
clouds,
%
prec.,
mm/h
press.,
hPa
HPBL,
m
17 april, sat
sat1700:00+7se33815 0.0 101844
03:00+6se22850 0.0 101832
06:00+5e118587 0.0 101810
09:00+9sw1169100 0.0 1019294
12:00+10nw2467100 0.5 1017673
15:00+8sw4592100 2.9 1017319
18:00+6sw4791100 1.3 1017329
21:00+6s2494100 1.4 1017243
18 april, sun
sun1800:00+5s2292100 0.0 101866
03:00+4ssw2292100 0.0 101820
06:00+4ene2294100 0.0 101826
09:00+7e227997 0.0 1018403
12:00+8sse337296 0.3 1019785
15:00+10e3462100 0.6 10181010
18:00+7n4582100 0.9 1018326
21:00+4nne489497 1.3 1020294
19 april, mon
mon1900:00+4nne489680 0.0 1019180
03:00+4nne4796100 0.0 1019164
06:00+5ne51096100 0.4 1019439
09:00+7ene5986100 0.6 10201016
12:00+7ese5886100 0.4 10201110
15:00+7ne6989100 1.6 1020962
18:00+7ene71289100 0.1 1020698
21:00+5ene71395100 3.1 1020670
20 april, tue
tue2000:00+4ene81392100 2.7 1020661
03:00+3ene71292100 2.8 1019637
06:00+2ene61197100 0.0 1019560
09:00+3ene61297100 0.1 1017462
12:00+6ene71189100 0.0 1015792
15:00+6ene81285100 0.1 1012882
18:00+4ne91694100 3.1 1007842
21:00+2ne101897100 10.5 1002851
21 april, wed
wed2100:00+6ene61298100 8.5 996488
03:00+9se71389100 8.6 995677
06:00+8se61289100 0.2 995746
09:00+3sse5993100 0.4 997402
12:00+3wsw81196100 0.1 1000635
15:00+3wsw81494100 0.4 1006904
18:00+5wsw71286100 0.0 1011945
21:00+5sw41089100 0.1 1014392